Simultaneous Nadir Overpasses (SNOs) Predictions

Prediction of SNOs between AQUA and METOP-C Satellite Orbit:

Table of predicted SNOs for the next 14.0 days since TLE Epoch: 2/27/2021
Index Date (AQUA) Time (AQUA) Lat,Lon (AQUA) SZA (AQUA ) Date (METOP-C) Time (METOP-C) Lat,Lon (METOP-C) SZA (METOP-C ) Distance(km) Time Diff (sec)
1 02/28/2021 23:01:57 73.68,-170.97 81.37 02/28/2021 23:01:02 73.67,-170.96 81.37 1.68 55
2 02/28/2021 23:51:24 -73.75, -3.48 98.58 02/28/2021 23:51:43 -73.74, -3.46 98.59 0.81 19
3 03/01/2021 00:41:03 74.35, 162.79 82.07 03/01/2021 00:42:09 74.39, 165.47 81.99 80.45 66
4 03/03/2021 18:36:11 73.68,-104.54 80.29 03/03/2021 18:35:23 73.69,-104.51 80.30 0.94 48
5 03/03/2021 19:25:38 -73.75, 62.96 99.66 03/03/2021 19:26:04 -73.76, 62.99 99.65 1.36 26
6 03/06/2021 14:10:26 73.69, -38.11 79.20 03/06/2021 14:09:45 73.71, -38.06 79.22 2.28 41
7 03/06/2021 14:59:53 -73.76, 129.39 100.74 03/06/2021 15:00:26 -73.78, 129.43 100.73 2.44 33
8 03/09/2021 09:44:41 73.70, 28.30 78.11 03/09/2021 09:44:07 73.72, 28.39 78.13 3.27 34
9 03/09/2021 10:34:08 -73.77,-164.20 101.83 03/09/2021 10:34:48 -73.79,-164.13 101.82 2.93 40
10 03/12/2021 05:18:54 73.67, 94.82 76.97 03/12/2021 05:18:29 73.69, 94.71 76.99 3.73 25
11 03/12/2021 06:08:22 -73.79, -97.80 102.92 03/12/2021 06:09:09 -73.80, -97.70 102.93 3.28 47



Historial Predications of SNOs between AQUA and METOP-C
